Regional Weather Roundup
Issued by NWS Northern Indiana

Home | Current Version | Previous Version | Text Only | Print | Product List | Glossary On
Versions: 1 2 3 4 5 6 7 8 9 10 11 12 13 14 15 16 17 18 19 20 21 22 23 24 25 26 27 28 29 30 31 32 33 34 35 36 37 38 39 40 41 42 43 44 45 46 47 48 49 50
000
ASUS43 KIWX 031810
RWRIWX

KIWX WEATHER ROUNDUP
NATIONAL WEATHER SERVICE NORTHERN INDIANA
200 PM EDT FRI JUL 03 2015

NOTE: "FAIR" INDICATES FEW OR NO CLOUDS BELOW 12,000 FEET WITH NO
SIGNIFICANT WEATHER AND/OR OBSTRUCTIONS TO VISIBILITY.

* THESE STATIONS ARE NOT UNDER NWS QUALITY CONTROL. THEY ALSO MAY NOT
  REPORT WEATHER SUCH AS PRECIPITATION OR FOG.

INZ001>027-031900-
NORTHERN INDIANA

CITY           SKY/WX    TMP DP  RH WIND       PRES   REMARKS
VALPARAISO     PTSUNNY   74  56  53 E5        29.97F
6HR MIN TEMP:  60; 6HR MAX TEMP:  75;

MICHIGAN CITY* PTSUNNY   72  57  60 N7        29.98S
LAPORTE*       PTSUNNY   74  57  54 NE7       29.98S
6HR MIN TEMP:  61; 6HR MAX TEMP:  76;

KNOX*          PTSUNNY   72  54  53 E9        29.95F
SOUTH BEND     PTSUNNY   73  54  51 E5        29.98S
6HR MIN TEMP:  61; 6HR MAX TEMP:  74;

ELKHART*       PTSUNNY   73  54  49 E7        29.98F
GOSHEN         PTSUNNY   73  55  53 NE6       29.97F
6HR MIN TEMP:  61; 6HR MAX TEMP:  74;

MONTICELLO*    PTSUNNY   73  62  68 NE5       29.94S
6HR MIN TEMP:  62; 6HR MAX TEMP:  74;

LOGANSPORT*    PTSUNNY   72  55  56 E6        29.96S
ROCHESTER*     MOSUNNY   73  59  60 E7        29.96S
WARSAW*          N/A     73  55  53 E5        29.97S
ANGOLA*          N/A     72  54  53 E6        29.97F
FORT WAYNE     PTSUNNY   73  58  59 E7        29.96F
6HR MIN TEMP:  60; 6HR MAX TEMP:  74;

HUNTINGTON*    PTSUNNY   72  59  62 E3        29.95F
6HR MIN TEMP:  59; 6HR MAX TEMP:  74;

PERU/GRISSOM   PTSUNNY   73  61  67 NE8       29.94S
6HR MIN TEMP:  62; 6HR MAX TEMP:  73; 6HR PCP: TRACE;

MARION*        PTSUNNY   72  60  65 NE8       29.95S
6HR MIN TEMP:  52; 6HR MAX TEMP:  78; 6HR PCP:  0.01;


$$
INZ028>050-031900-
CENTRAL INDIANA

CITY           SKY/WX    TMP DP  RH WIND       PRES   REMARKS
LAFAYETTE      CLOUDY    72  61  68 N7        29.94S
6HR MIN TEMP:  62; 6HR MAX TEMP:  73;

KOKOMO*        CLOUDY    72  61  68 NE8       29.94F
6HR MIN TEMP:  61; 6HR MAX TEMP:  72;

MUNCIE*        CLOUDY    74  61  63 E9        29.94S
6HR MIN TEMP:  62; 6HR MAX TEMP:  75;

INDIANAPOLIS   CLOUDY    73  62  68 N10       29.90S
6HR MIN TEMP:  63; 6HR MAX TEMP:  73; 6HR PCP: TRACE;


$$
MIZ043>046-050>051-056>058-064>065-071>073-077>080-031900-
SOUTHWEST LOWER MICHIGAN

CITY           SKY/WX    TMP DP  RH WIND       PRES   REMARKS
BATTLE CREEK   PTSUNNY   73  53  49 S6        29.99S
6HR MIN TEMP:  59; 6HR MAX TEMP:  75;

BENTON HARBOR  PTSUNNY   71  56  58 NW6       29.98S
6HR MIN TEMP:  58; 6HR MAX TEMP:  73;

COLDWATER*     PTSUNNY   71  50  47 CALM      29.98F
6HR MIN TEMP:  57; 6HR MAX TEMP:  71;

HILLSDALE*     PTSUNNY   70  50  49 CALM      29.99S
6HR MIN TEMP:  58; 6HR MAX TEMP:  70;

HOLLAND        PTSUNNY   73  55  53 W9        29.99S
6HR MIN TEMP:  58; 6HR MAX TEMP:  75;

GRAND RAPIDS   PTSUNNY   71  51  49 E6        29.99S
6HR MIN TEMP:  55; 6HR MAX TEMP:  73;

KALAMAZOO      PTSUNNY   72  52  49 VRB3      29.99S
6HR MIN TEMP:  59; 6HR MAX TEMP:  74;

STURGIS*       PTSUNNY   72  54  53 CALM      29.98S
THREE RIVERS*  FAIR      72  53  50 E5        29.98F

$$
OHZ001>008-015>018-024>025-031900-
NORTHWEST OHIO

CITY           SKY/WX    TMP DP  RH WIND       PRES   REMARKS
DEFIANCE       CLOUDY    73  56  54 E6        29.97S
6HR MIN TEMP:  60; 6HR MAX TEMP:  74;

FINDLAY        CLOUDY    73  54  51 NE8       29.95F
6HR MIN TEMP:  62; 6HR MAX TEMP:  73;

TOLEDO EXPRESS CLOUDY    72  55  55 NE6       29.97S
6HR MIN TEMP:  58; 6HR MAX TEMP:  73;

TOLEDO METCALF PTSUNNY   72  55  55 E8        29.97F
6HR MIN TEMP:  63; 6HR MAX TEMP:  73;

LIMA           CLOUDY    72  60  66 NE7       29.95F
6HR MIN TEMP:  60; 6HR MAX TEMP:  74;


$$
AND FOR LAKE MICHIGAN COASTAL AND OPEN LAKE BUOY OBSERVATIONS

STATION/POSITION TEMP    WIND        PRES    VSBY  WAVE
                 AIR SEA DIR/SP/G                  HT/PER
                 (F)     (DEG/KT/KT) (MB)    (MI)  (FT/S)
CALUMET HARBOR    65      10/  5/  6   N/A
MICHIGAN CITY     65     340/  2/  3   N/A
BURNS HARBOR      63      10/  7/  9 1015.9R
SAINT JOSEPH      63     360/  6/  8   N/A
4 MI NW BRIDGMAN  63 63                N/A           1
MICHIGAN CITY     63 64  360/  8/ 10   N/A           1/ 3

$$
&&



USA.gov is the U.S. government's official web portal to all federal, state and local government web resources and services.